CZ-3B R/B (43583 NORAD) Tracking and Keplerian Element Data

This shows tracking and keplerian element data for the satellite.

Feedback or suggestion? Click here.




ElementValue
Catalog43583
NameCZ-3B R/B
Epoch Orbit128
Epoch Day239.30716942
Epoch Year2018
RAAN264.6213
Inclination55.0134
Eccentricity0.5818635
Argument of Perigee179.6361
Mean Anonmoly181.3291
Mean Motion4.40653631
Decay Rate0.00036337
L11 43583U 18062C 18239.30716942 .00036337 -51800-6 84348-3 0 9998
L22 43583 55.0134 264.6213 5818635 179.6361 181.3291 4.40653631 1284

Live tracking and technical data element details for CZ-3B R/B (NORAD 43583). CZ-3B R/B can be tracked NOW for your location showing map with azimuth and elevation plus other details from your city location.

Track the satellite on the map from your city or location and see movement details for azimuth, elevation, latitude, longitude, range, height, and movement on the map or in text.







IsCatalogInMostPopularTable: catalog: 43583, numindb: 47
Update: records affected: 1



GetName: 43583 CZ-3B R/B

Hit Count: updated at: Sat, 17 Nov 2018 02:31:07 GMT